Location: Unspecified
(51.5147°N, 7.4673°E)
Time: 04:07:25
(UTC+01:00)

A-11 Canister half - Pass Details

Date: 20 February 2026
Orbit: 1512 x 1687 km, 47.2° (Epoch: 7 March)

Event Time Altitude Azimuth Distance (km) Brightness Sun altitude
Rises 03:16:47 0° 287° (WNW) 4,887 - -39.0°
Reaches altitude 10° 03:20:20 10° 279° (W) 3,874 - -38.5°
Maximum altitude 03:28:43 33° 220° (SW) 2,435 - -37.5°
Drops below altitude 10° 03:36:50 10° 161° (SSE) 3,742 - -36.4°
Exits shadow 03:37:35 - 158° (SSE) 3,946 11.0 -36.3°
Sets 03:40:13 0° 152° (SSE) 4,700 11.5 -36.0°
